{"data":{"norad_id":62240,"intl_designator":"2024-232D","name":"QIANFAN-39","alt_names":[],"object_type":"PAYLOAD","status":"ACTIVE","operator":null,"country":"PRC","launch_date":"2024-12-05","launch_site_code":"TAISC","launch_vehicle":null,"mission":null,"orbit_class":"UNKNOWN","rcs_meters":null,"size_class":null,"mass_kg":null,"dimensions":null,"purposes":[],"wikipedia_slug":null,"has_3d_model":false,"image_url":null,"decayed_at":null,"tle_current":{"epoch":"2026-09-22T20:37:37.382880Z","epoch_age_seconds":106150,"freshness":"FRESH","line1":"1 62240U 24232D   26265.85946045  .00000312  00000+0  12566-3 0  9997","line2":"2 62240  89.0144   4.9779 0014800 220.8385 139.1700 14.25563530141864","mean_motion":14.2556353,"eccentricity":0.00148,"inclination_deg":89.0144,"raan_deg":4.9779,"arg_perigee_deg":220.8385,"mean_anomaly_deg":139.17,"bstar":0.00012566,"rev_number":14186,"period_min":101.01268513793,"perigee_km":795.96518814659,"apogee_km":817.2320055132,"semimajor_km":7184.7355968299,"source":"CELESTRAK","updated_at":"2026-09-23T09:00:21.307036Z"}}}